| time (UTC) | temp F | wind direction | speed MPH | gust MPH | rain 1hr in | rain 24hr in | rain mn in | humidity % | barometer mb |
| 20260903190524 | 60 | 144 | 2.0 | 5.0 | 0.00 | 0.37 | 0.03 | 67 | 1009.8 |
| 20260903190048 | 60 | 0 | 0.0 | 7.0 | 0.00 | 0.37 | 0.03 | 72 | 1009.8 |
| 20260903185524 | 59 | 95 | 2.0 | 7.0 | 0.00 | 0.37 | 0.03 | 69 | 1009.8 |
| 20260903185027 | 59 | 0 | 1.0 | 6.0 | 0.00 | 0.37 | 0.03 | 78 | 1009.7 |
| 20260903184551 | 59 | 0 | 2.0 | 6.0 | 0.00 | 0.37 | 0.03 | 76 | 1009.7 |
| 20260903184029 | 58 | 133 | 0.0 | 3.0 | 0.00 | 0.37 | 0.03 | 80 | 1009.7 |
| 20260903183523 | 58 | 274 | 1.0 | 6.0 | 0.00 | 0.37 | 0.03 | 81 | 1009.7 |
| 20260903183040 | 58 | 126 | 0.0 | 10.0 | 0.00 | 0.37 | 0.03 | 81 | 1009.7 |
| 20260903182527 | 58 | 94 | 1.0 | 10.0 | 0.00 | 0.37 | 0.03 | 81 | 1009.7 |
| 20260903182023 | 58 | 0 | 3.0 | 10.0 | 0.00 | 0.37 | 0.03 | 79 | 1009.7 |
| 20260903181548 | 59 | 115 | 3.0 | 8.0 | 0.00 | 0.37 | 0.03 | 75 | 1009.6 |
| 20260903181024 | 59 | 112 | 1.0 | 7.0 | 0.00 | 0.37 | 0.03 | 77 | 1009.5 |
| 20260903180524 | 58 | 112 | 2.0 | 7.0 | 0.00 | 0.37 | 0.03 | 80 | 1009.7 |
| 20260903180047 | 58 | 0 | 1.0 | 4.0 | 0.00 | 0.37 | 0.03 | 79 | 1009.7 |
| 20260903175524 | 57 | 140 | 1.0 | 4.0 | 0.00 | 0.37 | 0.03 | 85 | 1009.7 |
| 20260903175024 | 57 | 0 | 2.0 | 8.0 | 0.00 | 0.37 | 0.03 | 84 | 1009.7 |
| 20260903174541 | 57 | 117 | 3.0 | 8.0 | 0.00 | 0.37 | 0.03 | 84 | 1009.7 |
| 20260903174025 | 57 | 0 | 2.0 | 7.0 | 0.00 | 0.37 | 0.03 | 85 | 1009.6 |
| 20260903173525 | 57 | 105 | 3.0 | 7.0 | 0.00 | 0.37 | 0.03 | 83 | 1009.6 |
| 20260903173051 | 56 | 138 | 1.0 | 6.0 | 0.00 | 0.37 | 0.03 | 86 | 1009.7 |
| 20260903172523 | 56 | 107 | 2.0 | 6.0 | 0.00 | 0.37 | 0.03 | 86 | 1009.6 |
| 20260903172024 | 56 | 0 | 0.0 | 3.0 | 0.00 | 0.37 | 0.03 | 87 | 1009.6 |
| 20260903171546 | 56 | 0 | 0.0 | 4.0 | 0.00 | 0.37 | 0.03 | 89 | 1009.7 |
| 20260903171023 | 56 | 111 | 0.0 | 4.0 | 0.00 | 0.37 | 0.03 | 88 | 1009.6 |
| 20260903170525 | 56 | 106 | 0.0 | 3.0 | 0.00 | 0.37 | 0.03 | 90 | 1009.6 |
| 20260903170057 | 55 | 0 | 0.0 | 3.0 | 0.00 | 0.37 | 0.03 | 89 | 1009.5 |
| 20260903165523 | 54 | 0 | 1.0 | 3.0 | 0.00 | 0.37 | 0.03 | 88 | 1009.5 |
| 20260903165024 | 54 | 130 | 1.0 | 3.0 | 0.00 | 0.37 | 0.03 | 89 | 1009.6 |
| 20260903164543 | 54 | 193 | 0.0 | 3.0 | 0.00 | 0.37 | 0.03 | 90 | 1009.6 |
| 20260903164025 | 53 | 106 | 0.0 | 3.0 | 0.00 | 0.37 | 0.03 | 91 | 1009.7 |
| 20260903163526 | 53 | 212 | 0.0 | 2.0 | 0.00 | 0.37 | 0.03 | 93 | 1009.9 |
| 20260903163048 | 52 | 0 | 0.0 | 2.0 | 0.00 | 0.37 | 0.03 | 93 | 1009.8 |
| 20260903162527 | 52 | 0 | 0.0 | 2.0 | 0.00 | 0.37 | 0.03 | 93 | 1009.9 |
| 20260903162027 | 52 | 0 | 0.0 | 2.0 | 0.01 | 0.37 | 0.03 | 93 | 1009.9 |
| 20260903161546 | 51 | 0 | 0.0 | 1.0 | 0.01 | 0.37 | 0.03 | 93 | 1010.0 |
| 20260903161024 | 51 | 0 | 0.0 | 1.0 | 0.01 | 0.37 | 0.03 | 93 | 1010.1 |
| 20260903160526 | 51 | 0 | 0.0 | 1.0 | 0.01 | 0.37 | 0.03 | 93 | 1010.1 |
| 20260903160055 | 51 | 0 | 0.0 | 2.0 | 0.01 | 0.37 | 0.03 | 94 | 1010.1 |
| 20260903155524 | 51 | 0 | 0.0 | 2.0 | 0.01 | 0.37 | 0.03 | 94 | 1010.0 |
| 20260903155023 | 51 | 0 | 0.0 | 1.0 | 0.01 | 0.37 | 0.03 | 94 | 1009.9 |
| 20260903154555 | 50 | 0 | 0.0 | 2.0 | 0.01 | 0.37 | 0.03 | 94 | 1009.9 |
| 20260903154034 | 50 | 0 | 0.0 | 2.0 | 0.01 | 0.37 | 0.03 | 95 | 1009.9 |
| 20260903153525 | 50 | 0 | 0.0 | 2.0 | 0.01 | 0.37 | 0.03 | 95 | 1010.0 |
| 20260903153047 | 50 | 0 | 0.0 | 2.0 | 0.01 | 0.37 | 0.03 | 95 | 1010.0 |
| 20260903152526 | 50 | 263 | 0.0 | 2.0 | 0.00 | 0.36 | 0.02 | 95 | 1010.0 |
| 20260903152030 | 50 | 0 | 0.0 | 1.0 | 0.00 | 0.36 | 0.02 | 95 | 1010.0 |
| 20260903151546 | 50 | 0 | 0.0 | 2.0 | 0.00 | 0.36 | 0.02 | 95 | 1009.9 |
| 20260903151024 | 50 | 0 | 0.0 | 2.0 | 0.00 | 0.36 | 0.02 | 95 | 1009.9 |
| 20260903150526 | 50 | 0 | 0.0 | 2.0 | 0.00 | 0.36 | 0.02 | 95 | 1010.0 |
| 20260903145530 | 50 | 113 | 0.0 | 2.0 | 0.00 | 0.36 | 0.02 | 94 | 1009.9 |
| 20260903145023 | 50 | 103 | 0.0 | 1.0 | 0.00 | 0.36 | 0.02 | 94 | 1009.9 |
| 20260903144550 | 50 | 0 | 0.0 | 2.0 | 0.00 | 0.36 | 0.02 | 94 | 1009.9 |
| 20260903144027 | 50 | 0 | 0.0 | 2.0 | 0.00 | 0.36 | 0.02 | 94 | 1009.8 |
| 20260903143526 | 50 | 0 | 0.0 | 2.0 | 0.00 | 0.36 | 0.02 | 94 | 1009.7 |
| 20260903143045 | 49 | 105 | 0.0 | 2.0 | 0.00 | 0.36 | 0.02 | 94 | 1009.7 |
| 20260903142523 | 49 | 0 | 0.0 | 0.0 | 0.00 | 0.36 | 0.02 | 95 | 1009.7 |
| 20260903142025 | 49 | 0 | 0.0 | 0.0 | 0.00 | 0.36 | 0.02 | 95 | 1009.7 |
| 20260903141545 | 49 | 0 | 0.0 | 1.0 | 0.00 | 0.36 | 0.02 | 95 | 1009.6 |
| 20260903141023 | 49 | 0 | 0.0 | 1.0 | 0.00 | 0.36 | 0.02 | 95 | 1009.7 |
| 20260903140523 | 49 | 0 | 0.0 | 1.0 | 0.01 | 0.36 | 0.02 | 94 | 1009.6 |
| 20260903140052 | 49 | 0 | 0.0 | 0.0 | 0.01 | 0.36 | 0.02 | 95 | 1009.6 |
| 20260903135522 | 49 | 0 | 0.0 | 0.0 | 0.01 | 0.36 | 0.02 | 95 | 1009.6 |
| 20260903135026 | 49 | 0 | 0.0 | 0.0 | 0.01 | 0.36 | 0.02 | 95 | 1009.6 |
| 20260903134547 | 49 | 0 | 0.0 | 0.0 | 0.01 | 0.36 | 0.02 | 95 | 1009.5 |
| 20260903134022 | 49 | 0 | 0.0 | 3.0 | 0.01 | 0.36 | 0.02 | 95 | 1009.6 |
| 20260903133525 | 48 | 0 | 0.0 | 3.0 | 0.01 | 0.36 | 0.02 | 95 | 1009.5 |
| 20260903133048 | 48 | 0 | 0.0 | 1.0 | 0.01 | 0.36 | 0.02 | 95 | 1009.6 |
| 20260903132523 | 48 | 0 | 0.0 | 0.0 | 0.01 | 0.36 | 0.02 | 95 | 1009.5 |
| 20260903132022 | 48 | 0 | 0.0 | 1.0 | 0.01 | 0.36 | 0.02 | 95 | 1009.4 |
| 20260903131602 | 48 | 0 | 0.0 | 1.0 | 0.01 | 0.36 | 0.02 | 95 | 1009.4 |
| 20260903131025 | 49 | 0 | 0.0 | 1.0 | 0.01 | 0.36 | 0.02 | 95 | 1009.4 |
| 20260903130526 | 48 | 0 | 0.0 | 2.0 | 0.00 | 0.35 | 0.01 | 95 | 1009.2 |
| 20260903130055 | 49 | 0 | 0.0 | 2.0 | 0.00 | 0.35 | 0.01 | 94 | 1009.2 |
| 20260903125524 | 48 | 0 | 0.0 | 3.0 | 0.00 | 0.35 | 0.01 | 94 | 1009.2 |
| 20260903125024 | 49 | 0 | 0.0 | 4.0 | 0.00 | 0.35 | 0.01 | 94 | 1009.4 |
| 20260903124552 | 48 | 0 | 0.0 | 4.0 | 0.00 | 0.35 | 0.01 | 94 | 1009.3 |
| 20260903124028 | 48 | 0 | 0.0 | 4.0 | 0.00 | 0.35 | 0.01 | 94 | 1009.1 |
| 20260903123524 | 48 | 0 | 0.0 | 1.0 | 0.00 | 0.35 | 0.01 | 94 | 1009.2 |
| 20260903123047 | 48 | 0 | 0.0 | 1.0 | 0.00 | 0.35 | 0.01 | 94 | 1009.2 |
| 20260903122522 | 48 | 0 | 0.0 | 1.0 | 0.00 | 0.35 | 0.01 | 94 | 1009.2 |
| 20260903122024 | 48 | 0 | 0.0 | 1.0 | 0.00 | 0.35 | 0.01 | 94 | 1009.2 |
| 20260903121556 | 49 | 0 | 0.0 | 1.0 | 0.01 | 0.35 | 0.01 | 94 | 1009.2 |
| 20260903121019 | 49 | 0 | 0.0 | 2.0 | 0.01 | 0.35 | 0.01 | 93 | 1009.2 |
| 20260903120523 | 48 | 0 | 0.0 | 2.0 | 0.01 | 0.35 | 0.01 | 94 | 1009.2 |
| 20260903120053 | 48 | 0 | 0.0 | 2.0 | 0.01 | 0.35 | 0.01 | 94 | 1009.3 |
| 20260903115523 | 48 | 0 | 0.0 | 2.0 | 0.01 | 0.35 | 0.01 | 94 | 1009.3 |
| 20260903115026 | 48 | 0 | 0.0 | 1.0 | 0.01 | 0.35 | 0.01 | 94 | 1009.2 |
| 20260903114548 | 48 | 0 | 0.0 | 2.0 | 0.01 | 0.35 | 0.01 | 94 | 1009.2 |
| 20260903114022 | 48 | 0 | 0.0 | 2.0 | 0.01 | 0.35 | 0.01 | 95 | 1009.3 |
| 20260903113524 | 48 | 0 | 0.0 | 2.0 | 0.01 | 0.35 | 0.01 | 95 | 1009.2 |
| 20260903113048 | 48 | 0 | 0.0 | 1.0 | 0.01 | 0.35 | 0.01 | 95 | 1009.2 |
| 20260903112525 | 48 | 0 | 0.0 | 0.0 | 0.01 | 0.35 | 0.01 | 94 | 1009.2 |
| 20260903112025 | 48 | 0 | 0.0 | 1.0 | 0.01 | 0.35 | 0.01 | 94 | 1009.2 |
| 20260903111547 | 49 | 0 | 0.0 | 1.0 | 0.00 | 0.34 | 0.00 | 94 | 1009.2 |
| 20260903111023 | 49 | 0 | 0.0 | 4.0 | 0.00 | 0.34 | 0.00 | 94 | 1009.0 |
| 20260903110523 | 48 | 0 | 0.0 | 4.0 | 0.00 | 0.34 | 0.00 | 94 | 1009.0 |
| 20260903110040 | 48 | 0 | 0.0 | 4.0 | 0.00 | 0.34 | 0.00 | 94 | 1009.1 |
| 20260903105528 | 48 | 0 | 0.0 | 2.0 | 0.00 | 0.37 | 0.00 | 94 | 1009.0 |
| 20260903105023 | 48 | 0 | 0.0 | 2.0 | 0.00 | 0.37 | 0.00 | 94 | 1009.0 |
| 20260903104556 | 48 | 0 | 0.0 | 2.0 | 0.00 | 0.37 | 0.00 | 94 | 1009.1 |
| 20260903104024 | 48 | 0 | 0.0 | 2.0 | 0.00 | 0.37 | 0.00 | 94 | 1009.0 |
| 20260903103525 | 48 | 0 | 0.0 | 2.0 | 0.00 | 0.37 | 0.00 | 94 | 1009.0 |
| 20260903103046 | 49 | 0 | 0.0 | 2.0 | 0.00 | 0.37 | 0.00 | 94 | 1009.0 |
| 20260903102526 | 49 | 0 | 0.0 | 2.0 | 0.00 | 0.37 | 0.00 | 95 | 1009.1 |
| 20260903102023 | 49 | 0 | 0.0 | 2.0 | 0.00 | 0.37 | 0.00 | 95 | 1009.1 |
| 20260903101550 | 49 | 0 | 0.0 | 1.0 | 0.00 | 0.37 | 0.00 | 95 | 1009.1 |
| 20260903101024 | 49 | 0 | 0.0 | 1.0 | 0.00 | 0.37 | 0.00 | 95 | 1009.1 |
| 20260903100527 | 49 | 0 | 0.0 | 1.0 | 0.00 | 0.37 | 0.00 | 95 | 1009.1 |
| 20260903100047 | 49 | 0 | 0.0 | 1.0 | 0.00 | 0.37 | 0.00 | 95 | 1009.1 |
| 20260903095521 | 49 | 0 | 0.0 | 1.0 | 0.00 | 0.38 | 0.00 | 94 | 1009.1 |
| 20260903095024 | 49 | 0 | 0.0 | 1.0 | 0.00 | 0.38 | 0.00 | 94 | 1009.2 |
| 20260903094553 | 49 | 0 | 0.0 | 3.0 | 0.00 | 0.38 | 0.00 | 94 | 1009.1 |
| 20260903094028 | 49 | 0 | 0.0 | 3.0 | 0.00 | 0.38 | 0.00 | 95 | 1009.1 |
| 20260903093527 | 49 | 0 | 0.0 | 2.0 | 0.00 | 0.38 | 0.00 | 95 | 1009.0 |
| 20260903093057 | 48 | 0 | 0.0 | 1.0 | 0.00 | 0.38 | 0.00 | 96 | 1008.9 |
| 20260903092523 | 48 | 0 | 0.0 | 1.0 | 0.00 | 0.38 | 0.00 | 96 | 1008.9 |
| 20260903092023 | 49 | 0 | 0.0 | 1.0 | 0.00 | 0.38 | 0.00 | 96 | 1009.0 |
| 20260903091557 | 49 | 0 | 0.0 | 3.0 | 0.00 | 0.38 | 0.00 | 96 | 1008.9 |
| 20260903091025 | 49 | 0 | 0.0 | 3.0 | 0.00 | 0.38 | 0.00 | 96 | 1009.0 |
| 20260903090523 | 49 | 0 | 0.0 | 1.0 | 0.00 | 0.38 | 0.00 | 96 | 1008.9 |
| 20260903090049 | 49 | 0 | 0.0 | 1.0 | 0.00 | 0.38 | 0.00 | 96 | 1008.9 |
| 20260903085523 | 49 | 0 | 0.0 | 1.0 | 0.00 | 0.38 | 0.00 | 96 | 1009.0 |
| 20260903085023 | 49 | 0 | 0.0 | 1.0 | 0.00 | 0.38 | 0.00 | 96 | 1009.0 |
| 20260903084547 | 49 | 0 | 0.0 | 0.0 | 0.00 | 0.38 | 0.00 | 96 | 1009.0 |
| 20260903084024 | 49 | 0 | 0.0 | 0.0 | 0.00 | 0.38 | 0.00 | 96 | 1009.0 |
| 20260903083524 | 49 | 0 | 0.0 | 1.0 | 0.00 | 0.38 | 0.00 | 96 | 1008.9 |
| 20260903083049 | 49 | 0 | 0.0 | 1.0 | 0.00 | 0.38 | 0.00 | 96 | 1008.9 |
| 20260903082522 | 49 | 0 | 0.0 | 4.0 | 0.00 | 0.38 | 0.00 | 96 | 1008.9 |
| 20260903082024 | 49 | 0 | 0.0 | 4.0 | 0.00 | 0.38 | 0.00 | 96 | 1008.9 |
| 20260903081539 | 49 | 198 | 0.0 | 4.0 | 0.00 | 0.38 | 0.00 | 96 | 1008.8 |
| 20260903081024 | 49 | 0 | 0.0 | 2.0 | 0.00 | 0.38 | 0.00 | 96 | 1008.7 |
| 20260903080527 | 49 | 0 | 0.0 | 2.0 | 0.00 | 0.38 | 0.00 | 96 | 1008.8 |
| 20260903080050 | 49 | 0 | 0.0 | 1.0 | 0.00 | 0.38 | 0.00 | 96 | 1008.8 |
| 20260903075524 | 49 | 0 | 0.0 | 1.0 | 0.00 | 0.38 | 0.00 | 96 | 1008.8 |
| 20260903075023 | 49 | 0 | 0.0 | 1.0 | 0.00 | 0.38 | 0.00 | 96 | 1008.8 |
| 20260903074545 | 49 | 0 | 0.0 | 1.0 | 0.00 | 0.38 | 0.00 | 96 | 1008.8 |
| 20260903074021 | 49 | 0 | 0.0 | 1.0 | 0.00 | 0.38 | 0.00 | 96 | 1008.8 |
| 20260903073525 | 49 | 0 | 0.0 | 1.0 | 0.00 | 0.38 | 0.00 | 96 | 1008.7 |
| 20260903073054 | 49 | 0 | 0.0 | 1.0 | 0.00 | 0.38 | 0.00 | 96 | 1008.8 |
| 20260903072524 | 49 | 0 | 0.0 | 1.0 | 0.00 | 0.38 | 0.00 | 96 | 1008.7 |
| 20260903072024 | 49 | 0 | 0.0 | 1.0 | 0.00 | 0.38 | 0.00 | 96 | 1008.7 |
| 20260903071540 | 49 | 0 | 0.0 | 0.0 | 0.00 | 0.38 | 0.00 | 96 | 1008.6 |
| 20260903071025 | 49 | 0 | 0.0 | 0.0 | 0.00 | 0.38 | 0.00 | 96 | 1008.6 |
| 20260903070523 | 49 | 0 | 0.0 | 0.0 | 0.00 | 0.38 | 0.00 | 96 | 1008.5 |
| 20260903070056 | 49 | 0 | 0.0 | 0.0 | 0.00 | 0.38 | 0.00 | 96 | 1008.6 |
| 20260903065525 | 49 | 0 | 0.0 | 1.0 | 0.00 | 0.40 | 0.38 | 96 | 1008.6 |
| 20260903065024 | 49 | 0 | 0.0 | 1.0 | 0.00 | 0.40 | 0.38 | 96 | 1008.7 |
| 20260903064546 | 49 | 0 | 0.0 | 1.0 | 0.00 | 0.40 | 0.38 | 96 | 1008.7 |
| 20260903064024 | 49 | 0 | 0.0 | 0.0 | 0.00 | 0.40 | 0.38 | 96 | 1008.7 |
| 20260903063522 | 49 | 0 | 0.0 | 0.0 | 0.00 | 0.40 | 0.38 | 96 | 1008.7 |
| 20260903063049 | 49 | 0 | 0.0 | 0.0 | 0.00 | 0.40 | 0.38 | 96 | 1008.8 |
| 20260903062524 | 49 | 0 | 0.0 | 0.0 | 0.00 | 0.40 | 0.38 | 96 | 1008.8 |
| 20260903062025 | 49 | 0 | 0.0 | 0.0 | 0.00 | 0.40 | 0.38 | 96 | 1008.7 |
| 20260903061549 | 49 | 0 | 0.0 | 0.0 | 0.00 | 0.40 | 0.38 | 96 | 1008.6 |
| 20260903061024 | 50 | 0 | 0.0 | 1.0 | 0.00 | 0.40 | 0.38 | 96 | 1008.6 |
| 20260903060524 | 50 | 0 | 0.0 | 1.0 | 0.00 | 0.40 | 0.38 | 96 | 1008.6 |
| 20260903055524 | 50 | 0 | 0.0 | 0.0 | 0.00 | 0.40 | 0.38 | 96 | 1008.7 |
| 20260903055024 | 50 | 0 | 0.0 | 0.0 | 0.00 | 0.40 | 0.38 | 96 | 1008.5 |
| 20260903054546 | 50 | 0 | 0.0 | 0.0 | 0.00 | 0.40 | 0.38 | 96 | 1008.5 |
| 20260903054024 | 51 | 0 | 0.0 | 0.0 | 0.00 | 0.40 | 0.38 | 96 | 1008.3 |
| 20260903053525 | 51 | 0 | 0.0 | 0.0 | 0.00 | 0.40 | 0.38 | 96 | 1008.3 |
| 20260903053047 | 51 | 0 | 0.0 | 0.0 | 0.00 | 0.40 | 0.38 | 96 | 1008.5 |
| 20260903052526 | 51 | 0 | 0.0 | 0.0 | 0.00 | 0.40 | 0.38 | 96 | 1008.5 |
| 20260903052024 | 51 | 0 | 0.0 | 0.0 | 0.00 | 0.40 | 0.38 | 96 | 1008.5 |
| 20260903051546 | 51 | 0 | 0.0 | 0.0 | 0.00 | 0.40 | 0.38 | 96 | 1008.5 |
| 20260903051024 | 51 | 0 | 0.0 | 0.0 | 0.00 | 0.40 | 0.38 | 96 | 1008.5 |
| 20260903050524 | 51 | 0 | 0.0 | 0.0 | 0.00 | 0.40 | 0.38 | 96 | 1008.3 |
| 20260903050048 | 51 | 0 | 0.0 | 1.0 | 0.00 | 0.40 | 0.38 | 96 | 1008.3 |
| 20260903045523 | 51 | 0 | 0.0 | 1.0 | 0.00 | 0.41 | 0.38 | 96 | 1008.4 |
| 20260903045025 | 52 | 0 | 0.0 | 1.0 | 0.00 | 0.41 | 0.38 | 96 | 1008.5 |
| 20260903044540 | 52 | 0 | 0.0 | 0.0 | 0.00 | 0.41 | 0.38 | 96 | 1008.3 |
| 20260903044029 | 52 | 0 | 0.0 | 0.0 | 0.00 | 0.41 | 0.38 | 96 | 1008.2 |
| 20260903043521 | 52 | 0 | 0.0 | 0.0 | 0.00 | 0.41 | 0.38 | 96 | 1008.2 |
| 20260903043046 | 52 | 0 | 0.0 | 0.0 | 0.00 | 0.41 | 0.38 | 96 | 1008.2 |
| 20260903042523 | 52 | 0 | 0.0 | 0.0 | 0.00 | 0.41 | 0.38 | 96 | 1008.2 |
| 20260903042026 | 52 | 0 | 0.0 | 0.0 | 0.00 | 0.41 | 0.38 | 96 | 1008.2 |
| 20260903041547 | 52 | 0 | 0.0 | 0.0 | 0.00 | 0.41 | 0.38 | 96 | 1008.3 |
| 20260903041023 | 51 | 0 | 0.0 | 0.0 | 0.00 | 0.41 | 0.38 | 96 | 1008.2 |
| 20260903040524 | 51 | 0 | 0.0 | 0.0 | 0.00 | 0.41 | 0.38 | 96 | 1008.2 |
| 20260903040045 | 51 | 0 | 0.0 | 0.0 | 0.00 | 0.41 | 0.38 | 96 | 1008.1 |
| 20260903035527 | 51 | 0 | 0.0 | 0.0 | 0.00 | 0.43 | 0.38 | 96 | 1008.1 |
| 20260903035024 | 51 | 0 | 0.0 | 1.0 | 0.00 | 0.43 | 0.38 | 96 | 1008.0 |
| 20260903034555 | 51 | 0 | 0.0 | 1.0 | 0.00 | 0.43 | 0.38 | 96 | 1008.0 |
| 20260903034027 | 51 | 0 | 0.0 | 1.0 | 0.00 | 0.43 | 0.38 | 96 | 1007.9 |
| 20260903033522 | 51 | 0 | 0.0 | 1.0 | 0.00 | 0.43 | 0.38 | 96 | 1007.9 |
| 20260903033048 | 51 | 0 | 0.0 | 1.0 | 0.00 | 0.43 | 0.38 | 95 | 1007.7 |
| 20260903032525 | 51 | 0 | 0.0 | 1.0 | 0.00 | 0.43 | 0.38 | 96 | 1007.7 |
| 20260903032023 | 51 | 0 | 0.0 | 1.0 | 0.00 | 0.43 | 0.38 | 95 | 1007.7 |
| 20260903031546 | 52 | 0 | 0.0 | 1.0 | 0.00 | 0.43 | 0.38 | 95 | 1007.6 |
| 20260903031028 | 52 | 95 | 0.0 | 2.0 | 0.00 | 0.43 | 0.38 | 95 | 1007.5 |
| 20260903030524 | 52 | 0 | 0.0 | 2.0 | 0.00 | 0.43 | 0.38 | 95 | 1007.4 |
| 20260903030051 | 52 | 0 | 0.0 | 2.0 | 0.01 | 0.43 | 0.38 | 95 | 1007.3 |
| 20260903025523 | 52 | 0 | 0.0 | 0.0 | 0.02 | 0.43 | 0.38 | 95 | 1007.3 |
| 20260903025023 | 52 | 0 | 0.0 | 1.0 | 0.04 | 0.43 | 0.38 | 95 | 1007.2 |
| 20260903024541 | 52 | 0 | 0.0 | 2.0 | 0.06 | 0.43 | 0.38 | 95 | 1007.3 |
| 20260903024025 | 52 | 0 | 0.0 | 2.0 | 0.08 | 0.43 | 0.38 | 94 | 1007.2 |
| 20260903023530 | 53 | 0 | 0.0 | 2.0 | 0.10 | 0.43 | 0.38 | 94 | 1007.2 |
| 20260903023048 | 53 | 0 | 0.0 | 2.0 | 0.12 | 0.43 | 0.38 | 94 | 1007.2 |
| 20260903022524 | 53 | 0 | 0.0 | 4.0 | 0.14 | 0.43 | 0.38 | 93 | 1007.1 |
| 20260903022030 | 53 | 0 | 0.0 | 6.0 | 0.17 | 0.43 | 0.38 | 93 | 1006.8 |
| 20260903021550 | 53 | 291 | 0.0 | 6.0 | 0.20 | 0.43 | 0.38 | 92 | 1006.7 |
| 20260903021025 | 53 | 248 | 0.0 | 4.0 | 0.22 | 0.43 | 0.38 | 92 | 1006.6 |
| 20260903020524 | 53 | 0 | 0.0 | 6.0 | 0.23 | 0.43 | 0.38 | 93 | 1006.7 |
| 20260903020043 | 53 | 112 | 0.0 | 7.0 | 0.22 | 0.42 | 0.37 | 93 | 1006.7 |
| 20260903015520 | 53 | 0 | 0.0 | 7.0 | 0.21 | 0.41 | 0.36 | 94 | 1006.7 |
| 20260903015022 | 54 | 0 | 1.0 | 9.0 | 0.18 | 0.38 | 0.33 | 93 | 1006.8 |
| 20260903014554 | 54 | 0 | 0.0 | 9.0 | 0.16 | 0.36 | 0.31 | 93 | 1006.8 |
| 20260903014029 | 54 | 0 | 1.0 | 9.0 | 0.14 | 0.34 | 0.29 | 93 | 1006.9 |
| 20260903013527 | 54 | 0 | 0.0 | 12.0 | 0.12 | 0.32 | 0.27 | 92 | 1006.8 |
| 20260903013047 | 54 | 0 | 1.0 | 13.0 | 0.11 | 0.31 | 0.26 | 92 | 1006.6 |
| 20260903012523 | 55 | 207 | 4.0 | 13.0 | 0.08 | 0.28 | 0.23 | 93 | 1006.5 |
| 20260903012021 | 55 | 273 | 0.0 | 8.0 | 0.05 | 0.25 | 0.20 | 93 | 1006.4 |
| 20260903011602 | 56 | 190 | 0.0 | 3.0 | 0.02 | 0.22 | 0.17 | 95 | 1006.2 |
| 20260903011024 | 56 | 0 | 0.0 | 1.0 | 0.00 | 0.20 | 0.15 | 95 | 1005.7 |
| 20260903010526 | 56 | 0 | 0.0 | 2.0 | 0.00 | 0.20 | 0.15 | 95 | 1005.3 |
| 20260903010046 | 56 | 0 | 0.0 | 2.0 | 0.00 | 0.20 | 0.15 | 95 | 1005.1 |
| 20260903005521 | 56 | 299 | 0.0 | 1.0 | 0.00 | 0.20 | 0.15 | 95 | 1005.1 |
| 20260903005020 | 56 | 0 | 0.0 | 1.0 | 0.00 | 0.20 | 0.15 | 95 | 1005.2 |
| 20260903004548 | 56 | 0 | 0.0 | 2.0 | 0.00 | 0.20 | 0.15 | 95 | 1005.2 |
| 20260903004023 | 56 | 0 | 0.0 | 2.0 | 0.00 | 0.20 | 0.15 | 95 | 1005.3 |
| 20260903003524 | 56 | 0 | 0.0 | 2.0 | 0.00 | 0.20 | 0.15 | 95 | 1005.2 |
| 20260903003055 | 56 | 0 | 0.0 | 1.0 | 0.01 | 0.20 | 0.15 | 94 | 1005.3 |
| 20260903002524 | 56 | 0 | 0.0 | 1.0 | 0.02 | 0.20 | 0.15 | 95 | 1005.3 |
| 20260903002023 | 56 | 0 | 0.0 | 2.0 | 0.03 | 0.20 | 0.15 | 94 | 1005.3 |
| 20260903001545 | 56 | 0 | 0.0 | 2.0 | 0.05 | 0.20 | 0.15 | 95 | 1005.4 |
| 20260903001024 | 56 | 257 | 0.0 | 2.0 | 0.06 | 0.20 | 0.15 | 95 | 1005.5 |
| 20260903000525 | 57 | 0 | 0.0 | 0.0 | 0.07 | 0.20 | 0.15 | 95 | 1005.5 |
| 20260903000052 | 57 | 0 | 0.0 | 0.0 | 0.08 | 0.20 | 0.15 | 95 | 1005.6 |
| 20260902235524 | 56 | 0 | 0.0 | 0.0 | 0.08 | 0.20 | 0.15 | 95 | 1005.7 |
| 20260902235026 | 56 | 0 | 0.0 | 0.0 | 0.09 | 0.20 | 0.15 | 94 | 1005.5 |
| 20260902234543 | 56 | 0 | 0.0 | 0.0 | 0.09 | 0.20 | 0.15 | 94 | 1005.4 |
| 20260902234023 | 56 | 0 | 0.0 | 3.0 | 0.09 | 0.20 | 0.15 | 94 | 1005.5 |
| 20260902233523 | 56 | 0 | 0.0 | 3.0 | 0.09 | 0.20 | 0.15 | 94 | 1005.6 |
| 20260902233055 | 56 | 0 | 0.0 | 3.0 | 0.08 | 0.19 | 0.14 | 94 | 1005.5 |
| 20260902232522 | 56 | 0 | 0.0 | 2.0 | 0.08 | 0.18 | 0.13 | 94 | 1005.5 |
| 20260902232022 | 56 | 0 | 0.0 | 2.0 | 0.07 | 0.17 | 0.12 | 93 | 1005.8 |
| 20260902231549 | 57 | 106 | 0.0 | 2.0 | 0.05 | 0.15 | 0.10 | 93 | 1005.9 |
| 20260902231025 | 57 | 132 | 0.0 | 3.0 | 0.04 | 0.14 | 0.09 | 93 | 1005.9 |
| 20260902230526 | 57 | 0 | 0.0 | 3.0 | 0.03 | 0.13 | 0.08 | 93 | 1005.8 |
| 20260902230101 | 57 | 0 | 0.0 | 1.0 | 0.02 | 0.12 | 0.07 | 92 | 1005.6 |
| 20260902225525 | 57 | 0 | 0.0 | 1.0 | 0.02 | 0.12 | 0.07 | 92 | 1005.4 |
| 20260902225023 | 58 | 0 | 0.0 | 3.0 | 0.01 | 0.11 | 0.06 | 91 | 1005.4 |
| 20260902224547 | 58 | 0 | 0.0 | 4.0 | 0.01 | 0.11 | 0.06 | 90 | 1005.3 |
| 20260902224023 | 58 | 0 | 1.0 | 4.0 | 0.01 | 0.11 | 0.06 | 89 | 1005.3 |
| 20260902223523 | 58 | 0 | 0.0 | 4.0 | 0.01 | 0.11 | 0.06 | 89 | 1005.4 |
| 20260902223049 | 59 | 115 | 0.0 | 6.0 | 0.01 | 0.11 | 0.06 | 88 | 1005.4 |
| 20260902222523 | 59 | 153 | 1.0 | 9.0 | 0.00 | 0.10 | 0.05 | 88 | 1005.3 |
| 20260902222022 | 59 | 149 | 2.0 | 9.0 | 0.00 | 0.10 | 0.05 | 87 | 1005.3 |
| 20260902221548 | 59 | 231 | 0.0 | 8.0 | 0.00 | 0.10 | 0.05 | 85 | 1005.2 |
| 20260902221024 | 59 | 0 | 1.0 | 8.0 | 0.00 | 0.10 | 0.05 | 84 | 1005.1 |
| 20260902220524 | 59 | 113 | 0.0 | 4.0 | 0.00 | 0.10 | 0.05 | 85 | 1004.9 |
| 20260902220057 | 60 | 119 | 0.0 | 5.0 | 0.01 | 0.10 | 0.05 | 83 | 1004.7 |
| 20260902215521 | 60 | 0 | 0.0 | 5.0 | 0.01 | 0.10 | 0.05 | 82 | 1004.9 |
| 20260902215024 | 60 | 111 | 1.0 | 4.0 | 0.01 | 0.10 | 0.05 | 82 | 1004.9 |
| 20260902214600 | 60 | 117 | 0.0 | 6.0 | 0.01 | 0.10 | 0.05 | 82 | 1005.0 |
| 20260902214023 | 60 | 0 | 0.0 | 6.0 | 0.01 | 0.10 | 0.05 | 82 | 1005.0 |
| 20260902213524 | 60 | 169 | 1.0 | 7.0 | 0.01 | 0.10 | 0.05 | 82 | 1005.0 |
| 20260902213044 | 61 | 0 | 1.0 | 7.0 | 0.01 | 0.10 | 0.05 | 80 | 1004.9 |
| 20260902212526 | 61 | 122 | 0.0 | 7.0 | 0.01 | 0.10 | 0.05 | 78 | 1005.0 |
| 20260902212023 | 61 | 0 | 1.0 | 7.0 | 0.01 | 0.10 | 0.05 | 79 | 1005.1 |
| 20260902211538 | 61 | 125 | 1.0 | 3.0 | 0.01 | 0.10 | 0.05 | 78 | 1005.1 |
| 20260902211023 | 61 | 128 | 0.0 | 7.0 | 0.01 | 0.10 | 0.05 | 79 | 1005.1 |
| 20260902210524 | 62 | 0 | 1.0 | 8.0 | 0.01 | 0.10 | 0.05 | 74 | 1005.1 |
| 20260902210049 | 63 | 118 | 3.0 | 8.0 | 0.00 | 0.09 | 0.04 | 75 | 1005.0 |
| 20260902205524 | 63 | 0 | 0.0 | 2.0 | 0.00 | 0.09 | 0.04 | 73 | 1005.1 |
| 20260902205023 | 63 | 0 | 0.0 | 2.0 | 0.00 | 0.09 | 0.04 | 73 | 1004.8 |
| 20260902204545 | 63 | 240 | 0.0 | 2.0 | 0.00 | 0.09 | 0.04 | 72 | 1004.7 |
| 20260902204025 | 63 | 0 | 0.0 | 2.0 | 0.00 | 0.09 | 0.04 | 71 | 1004.8 |
| 20260902203524 | 63 | 117 | 0.0 | 3.0 | 0.00 | 0.09 | 0.04 | 71 | 1004.8 |
| 20260902203046 | 63 | 0 | 0.0 | 3.0 | 0.00 | 0.09 | 0.04 | 69 | 1004.7 |
| 20260902202523 | 63 | 0 | 0.0 | 3.0 | 0.00 | 0.09 | 0.04 | 69 | 1004.7 |
| 20260902202024 | 63 | 109 | 0.0 | 3.0 | 0.00 | 0.09 | 0.04 | 68 | 1004.7 |
| 20260902201547 | 63 | 0 | 0.0 | 1.0 | 0.00 | 0.09 | 0.04 | 69 | 1004.7 |
| 20260902201024 | 63 | 0 | 0.0 | 1.0 | 0.00 | 0.09 | 0.04 | 70 | 1004.8 |
| 20260902200523 | 63 | 0 | 0.0 | 2.0 | 0.00 | 0.09 | 0.04 | 68 | 1005.0 |
| 20260902200051 | 63 | 0 | 0.0 | 2.0 | 0.00 | 0.09 | 0.04 | 72 | 1004.9 |
| 20260902195524 | 63 | 265 | 0.0 | 2.0 | 0.00 | 0.09 | 0.04 | 77 | 1005.2 |
| 20260902195022 | 62 | 0 | 0.0 | 0.0 | 0.00 | 0.09 | 0.04 | 75 | 1005.2 |
| 20260902194548 | 62 | 0 | 0.0 | 0.0 | 0.00 | 0.09 | 0.04 | 73 | 1005.3 |
| 20260902194024 | 62 | 0 | 0.0 | 1.0 | 0.00 | 0.09 | 0.04 | 75 | 1005.4 |
| 20260902193523 | 62 | 0 | 0.0 | 1.0 | 0.00 | 0.09 | 0.04 | 71 | 1005.4 |
| 20260902193050 | 62 | 0 | 0.0 | 0.0 | 0.00 | 0.09 | 0.04 | 70 | 1005.5 |
| 20260902192524 | 62 | 0 | 0.0 | 0.0 | 0.00 | 0.09 | 0.04 | 72 | 1005.5 |
| 20260902192024 | 62 | 0 | 0.0 | 0.0 | 0.00 | 0.09 | 0.04 | 70 | 1005.5 |
| 20260902191547 | 62 | 0 | 0.0 | 0.0 | 0.00 | 0.09 | 0.04 | 71 | 1005.6 |
| 20260902191023 | 62 | 0 | 0.0 | 4.0 | 0.00 | 0.09 | 0.04 | 74 | 1005.7 |